Regional Weather Roundup
Issued by NWS Glasgow, MT

Home | Current Version | Previous Version | Text Only | Print | Product List | Glossary On
Versions: 1 2 3 4 5 6 7 8 9 10 11 12 13 14 15 16 17 18 19 20 21 22 23 24 25 26 27 28 29 30 31 32 33 34 35 36 37 38 39 40 41 42 43 44 45 46 47 48 49 50
000
ASUS45 KGGW 200615
RWRGGW
HOURLY WEATHER ROUNDUP FOR NORTHEAST MONTANA
NATIONAL WEATHER SERVICE GLASGOW MONTANA
1200 AM MDT WED AUG 20 2014

NOTE: "FAIR" INDICATES FEW OR NO CLOUDS BELOW 12,000 FEET WITH NO
SIGNIFICANT WEATHER AND/OR OBSTRUCTIONS TO VISISBILITY.

NORTHEAST MONTANA


CITY           SKY/WX    TMP DP  RH WIND       PRES   REMARKS
GLASGOW        PTCLDY    69  49  48 SE5       29.58F
6HR MIN TEMP:  68; 6HR MAX TEMP:  93;

PLENTYWOOD       N/A     71  60  68 SE8         N/A
WOLF POINT     PTCLDY    63  47  55 E9        29.61R
JORDAN           N/A     69  54  58 CALM      29.62F
WINNETT          N/A     67  47  48 CALM        N/A
SIDNEY         MOCLDY    70  59  68 S3        29.64S
GLENDIVE       MOCLDY    73  57  56 S8        29.66S
MALTA            N/A     66  51  58 W3          N/A

FORT PECK REPORTS


CITY           SKY/WX    TMP DP  RH WIND       PRES   REMARKS
FORT PECK        N/A     77  55  46 SE5         N/A
THE PINES        N/A     76  55  48 S3          N/A

SOUTHEAST MONTANA


CITY           SKY/WX    TMP DP  RH WIND       PRES   REMARKS
BILLINGS       MOCLDY    70  44  39 S7        29.74S
MILES CITY     CLOUDY    76  48  37 SE7       29.64S
BAKER          PTCLDY    71  56  58 SE15      29.70F
LIVINGSTON     CLOUDY    70  41  34 SW41G52   29.80F

CENTRAL MONTANA


CITY           SKY/WX    TMP DP  RH WIND       PRES   REMARKS
HAVRE          MOCLDY    69  52  54 W9        29.67R
LEWISTOWN      MOCLDY    68  44  42 CALM      29.76S
GREAT FALLS    MOCLDY    66  47  50 CALM      29.77R
CUT BANK       MOCLDY    59  49  69 N13       29.76S
HELENA         PTCLDY    70  49  47 SW3       29.79R
BUTTE          MOCLDY    59  43  55 S5        29.92F
BOZEMAN        CLOUDY    61  52  72 CALM      29.86S

WESTERN MONTANA


CITY           SKY/WX    TMP DP  RH WIND       PRES   REMARKS
MISSOULA       PTCLDY    62  45  53 CALM      29.79S
KALISPELL      NOT AVBL

NORTH DAKOTA


CITY           SKY/WX    TMP DP  RH WIND       PRES   REMARKS
WILLISTON      MOCLDY    75  60  59 SE6       29.64S
DICKINSON      PTCLDY    67  58  72 S8        29.69S
MINOT          FAIR      65  60  84 SE6       29.69F
BISMARCK       PTCLDY    69  61  75 E5        29.73S

SOUTHERN SASKATCHEWAN


CITY           SKY/WX    TMP DP  RH WIND       PRES   REMARKS
REGINA         CLOUDY    68  63  83 E15G22    29.60F
ESTEVAN        CLOUDY    68  61  77 SE12      29.65F
SWIFT CURRENT  CLEAR     61  57  88 SE6       29.60R




USA.gov is the U.S. government's official web portal to all federal, state and local government web resources and services.